STARLINK-31900, 59942

Orbit data source: Space-Track

STARLINK-31900, 59942 is a payload satellite owned by SpaceX/Seattle (US) in LEO that was launched on Sat, 01 Jun 2024 UTC via an FALCON 9 launch vehicle from the Air Force Eastern Test Range (AFETR). Payload-class satellites include a variety of spacecraft equipped with specific instruments for various scientific and technological missions. These include communications satellites like Starlink; space stations such as the ISS; scientific satellites like the Hubble; Earth observation satellites from companies like Planet Labs, Umbra, and HawkEye 360; GPS; miniature CubeSats for education and research; and military/defense satellites.

Loading next visibility...
Identifier
59942, 2024-106W
Orbit
LEO
Country
Flag of USUS
Related business
Manufacturer
SpaceX/Seattle
Mission
Operational Commercial Communications
Bus & Motor
STARLINK V2M, Unknown motor
Mass
730 kg wet, ~700 kg dry
Launch date (UTC)
2024-06-01 (2 years ago)
Launch vehicle
FALCON 9
Launch site
Air Force Eastern Test Range (AFETR)
Object type
Payload
Rocket body
Debris
Shape & HBR
Box + 2 Pan, 17.7 m
Radar Cross Section
33.884 m², Large (>1 m²)

Expand to show TLE details & history
Last TLE update: 11 hours ago

TLE from 11 hours ago
0 STARLINK-31900
1 59942U 24106W   26036.36232429  .00006246  00000-0  24838-3 0  9996
2 59942  42.9971 154.6705 0001040 282.3566  77.7169 15.25913816 95583
Epoch: 2026-02-05T08:41Z
TLE epoch observation values (Epoch: 2026-02-05T08:41:44.818Z)
Latitude
0.00001°
Longitude
-111.28187°
Altitude
487.666 km
Speed
7.623 km/s
True Right ascension
10h 18m 40s
True Declination
0° 00' 00"
Sunlit
Object was in full shadow at epoch
Visualization orbit readout
Latitude
Unknown
Longitude
Unknown
Altitude
Unknown
Speed
Unknown
Apparent Right ascension
Unknown
Apparent Declination
Unknown
Sunlit
N/A
Visualization observer readout
Local Sidereal Time
21:34:10
Azimuth
Unknown
Elevation
Unknown
Doppler factor
Unknown
Orbital elements
Apogee altitude
490.701 km
Perigee altitude
489.273 km
Semi-major axis
6,868.124 km
Eccentricity
0.0001
Inclination
42.9971°
RAAN
154.6705°
Arg. of periapsis
282.3566°
True anomaly
77.72855°
Mean anomaly
77.7169°
Eccentric anomaly
77.72272°
Mean motion
3.81317 °/min
Orbital period
94.41 mins
BSTAR
0.00024838
Loading maneuver chart data...
Computing Atmospheric mass density...
Loading historical data...
Loading historical data...
Loading historical data...
Loading historical data...
Loading historical data...
Loading historical data...
Loading historical data...

Documentation

Showing up to 5 results
|